GW6303 Weather Reports


time (UTC)temp
C
wind
direction
speed
KPH
gust
KPH
rain 1hr
cm
rain 24hr
cm
rain mn
cm
humidity
%
barometer
mb
20260507001054 18 200 0.0 0.0 0.00 0.46 0.46 86 1009.2
20260507000549 18 200 0.0 0.0 0.00 0.46 0.46 86 1009.1
20260507000049 18 200 0.0 0.0 0.00 0.46 0.46 86 1009.1
20260506235549 18 200 0.0 0.0 0.00 0.46 0.46 86 1009.1
20260506235049 18 200 0.0 0.0 0.00 0.46 0.46 85 1009.0
20260506234548 18 200 0.0 0.0 0.00 0.46 0.46 85 1009.1
20260506234052 18 200 0.0 0.0 0.00 0.46 0.46 85 1009.1
20260506233549 18 200 0.0 0.0 0.00 0.46 0.46 84 1009.0
20260506233049 18 202 0.0 0.0 0.00 0.46 0.46 85 1008.9
20260506232548 18 201 0.0 0.0 0.00 0.46 0.46 84 1008.9
20260506232049 18 207 0.0 3.2 0.00 0.46 0.46 84 1008.9
20260506231549 18 191 0.0 3.2 0.00 0.46 0.46 84 1009.0
20260506231048 18 203 0.0 1.6 0.00 0.46 0.46 84 1009.0
20260506230547 18 207 0.0 1.6 0.00 0.46 0.46 84 1009.1
20260506230047 19 209 0.0 1.6 0.00 0.46 0.46 83 1008.9
20260506225547 19 200 0.0 0.0 0.00 0.46 0.46 83 1009.0
20260506225047 19 186 0.0 3.2 0.00 0.46 0.46 82 1008.9
20260506224547 20 186 0.0 3.2 0.00 0.46 0.46 82 1008.8
20260506224046 20 198 0.0 1.6 0.00 0.46 0.46 81 1008.9
20260506223549 20 198 0.0 0.0 0.00 0.46 0.46 82 1008.9
20260506223103 20 200 0.0 0.0 0.00 0.46 0.46 82 1008.5
20260506222545 19 203 0.0 0.0 0.00 0.46 0.46 83 1008.6
20260506222047 19 207 0.0 3.2 0.00 0.46 0.46 83 1008.8
20260506221545 19 197 0.0 3.2 0.00 0.46 0.46 83 1008.9
20260506221044 19 183 0.0 4.8 0.00 0.46 0.46 83 1009.0
20260506220544 19 191 0.0 4.8 0.00 0.46 0.46 83 1008.8
20260506220044 19 183 0.0 4.8 0.00 0.46 0.46 83 1008.8
20260506215544 19 201 0.0 3.2 0.00 0.46 0.46 83 1008.7
20260506215044 19 221 0.0 4.8 0.00 0.46 0.46 83 1008.7
20260506214544 19 175 0.0 4.8 0.00 0.46 0.46 83 1008.7
20260506214045 18 198 0.0 1.6 0.00 0.46 0.46 85 1008.6
20260506213547 18 195 0.0 1.6 0.00 0.46 0.46 85 1008.5
20260506213043 18 204 0.0 9.7 0.00 0.46 0.46 85 1008.4
20260506212543 18 186 0.0 9.7 0.00 0.46 0.46 84 1008.5
20260506212047 18 200 0.0 1.6 0.00 0.46 0.46 85 1008.4
20260506211545 18 208 0.0 0.0 0.00 0.46 0.46 85 1008.4
20260506211042 18 194 0.0 1.6 0.00 0.46 0.46 85 1008.5
20260506210542 18 227 0.0 4.8 0.00 0.46 0.46 85 1008.4
20260506210042 18 198 0.0 4.8 0.00 0.46 0.46 85 1008.4
20260506205542 18 193 0.0 6.4 0.00 0.46 0.46 85 1008.5
20260506205042 18 186 0.0 6.4 0.00 0.46 0.46 85 1008.4
20260506204542 18 198 0.0 3.2 0.00 0.46 0.46 85 1008.4
20260506204041 18 198 0.0 4.8 0.00 0.46 0.46 86 1008.3
20260506203541 18 191 0.0 4.8 0.00 0.46 0.46 87 1008.3
20260506203045 17 193 0.0 3.2 0.00 0.46 0.46 88 1008.3
20260506202544 17 199 0.0 4.8 0.00 0.46 0.46 88 1008.3
20260506202041 17 204 0.0 6.4 0.00 0.46 0.46 87 1008.2
20260506201541 17 207 0.0 6.4 0.00 0.46 0.46 87 1008.3
20260506201043 17 198 0.0 4.8 0.00 0.46 0.46 88 1008.3
20260506200540 17 175 0.0 4.8 0.00 0.46 0.46 88 1008.4
20260506200101 17 183 0.0 3.2 0.00 0.46 0.46 90 1008.3
20260506195539 17 190 0.0 3.2 0.00 0.46 0.46 89 1008.4
20260506195039 17 191 0.0 3.2 0.00 0.46 0.46 90 1008.5
20260506194540 16 198 0.0 3.2 0.00 0.46 0.46 90 1008.5
20260506194038 16 193 0.0 8.0 0.00 0.46 0.46 91 1008.6
20260506193540 16 165 1.6 8.0 0.00 0.46 0.46 91 1008.6
20260506193037 16 229 0.0 3.2 0.00 0.46 0.46 92 1008.7
20260506192536 16 252 0.0 3.2 0.00 0.46 0.46 92 1008.8
20260506192038 16 194 0.0 3.2 0.00 0.46 0.46 92 1008.9
20260506191537 16 231 0.0 3.2 0.00 0.46 0.46 92 1008.8
20260506191036 16 205 0.0 3.2 0.00 0.46 0.46 92 1009.0
20260506190535 16 206 0.0 1.6 0.00 0.46 0.46 92 1008.9
20260506190036 16 191 0.0 3.2 0.00 0.46 0.46 92 1009.0
20260506185534 16 200 0.0 4.8 0.00 0.46 0.46 92 1009.0
20260506185034 16 204 0.0 4.8 0.00 0.46 0.46 92 1009.0
20260506184534 16 203 0.0 6.4 0.00 0.46 0.46 91 1009.1
20260506184036 16 173 0.0 6.4 0.00 0.46 0.46 92 1009.1
20260506183534 16 213 0.0 4.8 0.00 0.46 0.46 91 1009.1
20260506183034 16 205 0.0 3.2 0.00 0.46 0.46 91 1009.0
20260506182533 16 211 0.0 6.4 0.00 0.46 0.46 92 1009.1
20260506182032 16 205 0.0 6.4 0.00 0.46 0.46 91 1009.1
20260506181536 16 144 0.0 4.8 0.00 0.46 0.46 92 1009.2
20260506181031 16 179 0.0 3.2 0.00 0.46 0.46 91 1009.2
20260506180534 16 198 0.0 3.2 0.00 0.46 0.46 91 1009.2
20260506180039 16 185 0.0 6.4 0.00 0.46 0.46 91 1009.4
20260506175532 16 206 0.0 6.4 0.00 0.46 0.46 91 1009.3
20260506175029 16 199 0.0 6.4 0.00 0.46 0.46 91 1009.3
20260506174530 16 142 0.0 6.4 0.00 0.46 0.46 91 1009.4
20260506174029 16 195 0.0 8.0 0.00 0.46 0.46 91 1009.3
20260506173529 16 188 0.0 8.0 0.00 0.46 0.46 92 1009.4
20260506173031 16 235 0.0 6.4 0.00 0.46 0.46 92 1009.4
20260506172528 16 172 0.0 3.2 0.03 0.46 0.46 92 1009.5
20260506172034 16 200 0.0 3.2 0.03 0.46 0.46 91 1009.7
20260506171544 16 250 0.0 3.2 0.05 0.46 0.46 92 1009.6
20260506171028 16 210 0.0 6.4 0.05 0.46 0.46 92 1009.5
20260506170528 16 218 0.0 11.3 0.08 0.46 0.46 92 1009.4
20260506170027 17 212 0.0 11.3 0.10 0.46 0.46 92 1009.5
20260506165528 16 181 1.6 8.0 0.13 0.46 0.46 92 1009.4
20260506165027 16 205 0.0 4.8 0.15 0.46 0.46 93 1009.4
20260506164527 16 186 0.0 3.2 0.18 0.46 0.46 93 1009.5
20260506164026 16 178 0.0 4.8 0.20 0.46 0.46 93 1009.6
20260506163527 16 178 0.0 9.7 0.23 0.46 0.46 93 1009.5
20260506163031 16 198 0.0 9.7 0.25 0.46 0.46 92 1009.6
20260506162526 16 184 0.0 4.8 0.25 0.43 0.43 93 1009.8
20260506162024 16 199 0.0 4.8 0.28 0.43 0.43 92 1010.1
20260506161535 16 182 0.0 3.2 0.28 0.41 0.41 92 1010.5
20260506161023 16 174 0.0 1.6 0.30 0.41 0.41 92 1010.6
20260506160527 16 185 0.0 1.6 0.28 0.38 0.38 92 1010.8
20260506160025 16 178 0.0 1.6 0.25 0.36 0.36 91 1010.9
20260506155521 16 195 0.0 1.6 0.25 0.33 0.33 90 1011.1
20260506155021 16 208 0.0 3.2 0.25 0.30 0.30 90 1011.0
20260506154520 16 221 0.0 3.2 0.23 0.28 0.28 90 1010.9
20260506154019 16 202 0.0 1.6 0.23 0.25 0.25 89 1010.8
20260506153519 16 205 0.0 3.2 0.23 0.23 0.23 88 1011.0
20260506153017 17 205 0.0 3.2 0.20 0.20 0.20 88 1011.1
20260506152518 17 193 0.0 1.6 0.15 0.15 0.15 88 1011.1
20260506152017 17 198 0.0 0.0 0.15 0.15 0.15 88 1011.0
20260506151517 17 197 0.0 4.8 0.13 0.13 0.13 87 1010.9
20260506151015 17 212 0.0 3.2 0.10 0.10 0.10 87 1010.9
20260506150515 17 207 0.0 3.2 0.10 0.10 0.10 86 1010.7
20260506150020 17 188 0.0 3.2 0.08 0.08 0.08 86 1010.7
20260506145513 17 199 0.0 3.2 0.08 0.08 0.08 85 1010.7
20260506145014 17 209 0.0 3.2 0.05 0.05 0.05 83 1010.8
20260506144514 17 208 0.0 3.2 0.03 0.03 0.03 81 1011.0
20260506144013 18 193 0.0 4.8 0.03 0.03 0.03 81 1011.0
20260506143514 18 217 0.0 4.8 0.00 0.00 0.00 79 1011.0
20260506143013 18 195 0.0 6.4 0.00 0.00 0.00 78 1011.1
20260506142512 18 191 0.0 6.4 0.00 0.00 0.00 77 1011.0
20260506142013 19 176 0.0 8.0 0.00 0.00 0.00 75 1011.0
20260506141513 19 198 0.0 9.7 0.00 0.00 0.00 74 1011.0
20260506141012 20 233 1.6 9.7 0.00 0.00 0.00 73 1010.8
20260506140512 20 207 0.0 6.4 0.00 0.00 0.00 74 1010.9
20260506140011 20 203 0.0 6.4 0.00 0.00 0.00 73 1010.6
20260506135510 19 238 0.0 6.4 0.00 0.00 0.00 74 1010.4
20260506135015 19 79 0.0 8.0 0.00 0.00 0.00 75 1010.5
20260506134519 18 198 0.0 9.7 0.00 0.00 0.00 76 1010.7
20260506134009 18 185 0.0 12.9 0.00 0.00 0.00 75 1010.9
20260506133508 18 198 1.6 12.9 0.00 0.00 0.00 75 1010.8
20260506133008 18 167 0.0 4.8 0.00 0.00 0.00 76 1010.8
20260506132509 18 203 0.0 4.8 0.00 0.00 0.00 76 1010.9
20260506132008 18 183 0.0 8.0 0.00 0.00 0.00 76 1011.0
20260506131509 18 191 0.0 8.0 0.00 0.00 0.00 76 1011.1
20260506131007 18 228 0.0 6.4 0.00 0.00 0.00 76 1011.2
20260506130507 18 191 0.0 4.8 0.00 0.00 0.00 77 1011.3
20260506130008 18 145 1.6 4.8 0.00 0.00 0.00 76 1011.2
20260506125506 18 206 0.0 6.4 0.00 0.00 0.00 76 1011.2
20260506125006 18 236 0.0 6.4 0.00 0.00 0.00 77 1011.2
20260506124511 18 220 0.0 8.0 0.00 0.00 0.00 78 1011.0
20260506124005 18 201 0.0 9.7 0.00 0.00 0.00 78 1011.1
20260506123505 18 163 0.0 9.7 0.00 0.00 0.00 78 1011.2
20260506123006 17 108 1.6 8.0 0.00 0.00 0.00 78 1011.0
20260506122506 17 188 1.6 6.4 0.00 0.00 0.00 78 1011.0
20260506122006 17 30 0.0 8.0 0.00 0.00 0.00 79 1010.9
20260506121509 17 184 0.0 8.0 0.00 0.00 0.00 79 1010.9
20260506121004 17 199 0.0 6.4 0.00 0.00 0.00 79 1011.0
20260506120504 17 133 0.0 9.7 0.00 0.00 0.00 79 1011.0
20260506120009 17 162 1.6 9.7 0.00 0.00 0.00 79 1010.9
20260506115503 17 70 0.0 6.4 0.00 0.00 0.00 79 1011.0
20260506115003 17 173 0.0 4.8 0.00 0.00 0.00 79 1011.1
20260506114504 17 225 0.0 11.3 0.00 0.00 0.00 79 1010.9
20260506114002 17 141 3.2 11.3 0.00 0.00 0.00 79 1011.0
20260506113502 17 205 0.0 8.0 0.00 0.00 0.00 79 1010.9
20260506113005 17 210 0.0 16.1 0.00 0.00 0.00 80 1010.9
20260506112503 17 258 0.0 9.7 0.00 0.00 0.00 80 1011.0
20260506112003 17 207 0.0 3.2 0.00 0.00 0.00 80 1011.1
20260506111501 17 198 0.0 3.2 0.00 0.00 0.00 80 1011.0
20260506111100 17 165 0.0 9.7 0.00 0.00 0.00 80 1011.0
20260506111001 17 229 0.0 9.7 0.00 0.00 0.00 80 1010.9
20260506110600 17 134 0.0 8.0 0.00 0.00 0.00 80 1010.8
20260506110100 17 165 0.0 8.0 0.00 0.00 0.00 80 1010.9
20260506105601 17 193 0.0 8.0 0.00 0.00 0.00 81 1011.0
20260506105100 17 168 0.0 9.7 0.00 0.00 0.00 81 1010.8
20260506104606 17 181 0.0 16.1 0.00 0.00 0.00 81 1010.8
20260506104059 17 186 1.6 16.1 0.00 0.00 0.00 81 1010.8
20260506103559 17 162 3.2 8.0 0.00 0.00 0.00 81 1010.8
20260506103106 17 205 0.0 4.8 0.00 0.00 0.00 81 1010.7
20260506102559 17 188 0.0 4.8 0.00 0.00 0.00 81 1010.6
20260506102058 17 122 0.0 4.8 0.00 0.00 0.00 81 1010.8
20260506101558 17 240 0.0 4.8 0.00 0.00 0.00 81 1010.6
20260506101057 17 193 0.0 3.2 0.00 0.00 0.00 81 1010.7
20260506100557 17 215 0.0 9.7 0.00 0.00 0.00 81 1010.8
20260506100056 17 224 0.0 9.7 0.00 0.00 0.00 81 1010.8
20260506095556 17 206 0.0 6.4 0.00 0.00 0.00 80 1010.8
20260506095055 17 153 0.0 6.4 0.00 0.00 0.00 80 1010.7
20260506094555 17 214 1.6 9.7 0.00 0.00 0.00 80 1010.6
20260506094054 17 146 1.6 9.7 0.00 0.00 0.00 80 1010.4
20260506093557 17 177 0.0 9.7 0.00 0.00 0.00 80 1010.5
20260506093059 17 223 0.0 6.4 0.00 0.00 0.00 80 1010.4
20260506092554 17 195 1.6 6.4 0.00 0.00 0.00 80 1010.4
20260506092056 17 131 0.0 6.4 0.00 0.00 0.00 80 1010.5
20260506091553 17 146 0.0 8.0 0.00 0.00 0.00 80 1010.5
20260506091053 17 174 0.0 8.0 0.00 0.00 0.00 80 1010.6
20260506090552 17 181 0.0 6.4 0.00 0.00 0.00 80 1010.7
20260506090051 17 159 0.0 4.8 0.00 0.00 0.00 80 1010.8
20260506085551 17 101 0.0 4.8 0.00 0.00 0.00 81 1010.7
20260506085050 17 181 0.0 8.0 0.00 0.00 0.00 80 1010.8
20260506084550 17 205 0.0 4.8 0.00 0.00 0.00 80 1010.8
20260506084053 17 176 0.0 12.9 0.00 0.00 0.00 80 1010.8
20260506083550 17 229 0.0 12.9 0.00 0.00 0.00 80 1010.7
20260506083108 17 131 0.0 9.7 0.00 0.00 0.00 80 1010.7
20260506082549 17 212 1.6 9.7 0.00 0.00 0.00 80 1010.6
20260506082052 17 146 0.0 8.0 0.00 0.00 0.00 80 1010.7
20260506081551 17 214 0.0 8.0 0.00 0.00 0.00 80 1010.7
20260506081048 17 179 1.6 8.0 0.00 0.00 0.00 80 1010.6
20260506080547 17 150 0.0 8.0 0.00 0.00 0.00 79 1010.6
20260506073044 18 173 1.6 12.9 0.00 0.00 0.00 79 1010.7
20260506072543 18 140 0.0 17.7 0.00 0.00 0.00 78 1010.6
20260506072043 18 229 3.2 17.7 0.00 0.00 0.00 78 1010.8
20260506071545 18 153 1.6 11.3 0.00 0.00 0.00 78 1010.7
20260506071041 18 233 0.0 6.4 0.00 0.00 0.00 78 1010.8
20260506070541 18 217 0.0 3.2 0.00 0.00 0.00 77 1010.8
20260506062035 18 184 0.0 4.8 0.00 0.00 0.00 75 1011.2
20260506061539 18 180 0.0 6.4 0.00 0.00 0.00 74 1011.2
20260506061034 18 213 0.0 6.4 0.00 0.00 0.00 74 1011.2
20260506060534 18 201 0.0 4.8 0.00 0.00 0.00 74 1011.2
20260506051027 18 130 0.0 4.8 0.00 0.00 0.00 71 1011.8
20260506050627 18 185 0.0 4.8 0.00 0.00 0.00 71 1011.7
20260506045025 18 172 1.6 8.0 0.00 0.00 0.00 70 1011.8
20260506044524 19 177 0.0 6.4 0.00 0.00 0.00 69 1011.9
20260506044027 19 184 0.0 6.4 0.00 0.00 0.00 69 1011.8
20260506043522 19 169 0.0 8.0 0.00 0.00 0.00 68 1011.9
20260506043023 19 189 0.0 8.0 0.00 0.00 0.00 68 1011.8
20260506042523 19 107 0.0 6.4 0.00 0.00 0.00 68 1011.8
20260506042023 19 236 0.0 9.7 0.00 0.00 0.00 68 1011.7
20260506041522 19 68 1.6 9.7 0.00 0.00 0.00 68 1011.7
20260506041020 19 240 1.6 6.4 0.00 0.00 0.00 68 1011.8
20260506040523 19 192 0.0 6.4 0.00 0.00 0.00 67 1011.8
20260506040025 19 197 0.0 6.4 0.00 0.00 0.00 67 1011.7
20260506035519 19 258 0.0 6.4 0.00 0.00 0.00 67 1011.7
20260506035019 19 204 0.0 4.8 0.00 0.00 0.00 67 1011.8
20260506034519 19 186 0.0 9.7 0.00 0.00 0.00 66 1011.7
20260506034018 20 199 0.0 9.7 0.00 0.00 0.00 66 1011.7
20260506033522 19 169 1.6 8.0 0.00 0.00 0.00 66 1011.6
20260506033018 19 190 0.0 6.4 0.00 0.00 0.00 66 1011.6
20260506032518 20 205 0.0 6.4 0.00 0.00 0.00 66 1011.7
20260506032018 20 256 0.0 12.9 0.00 0.00 0.00 66 1011.5
20260506031527 20 183 0.0 12.9 0.00 0.00 0.00 66 1011.7
20260506031019 20 226 0.0 6.4 0.00 0.00 0.00 65 1011.6
20260506030519 20 173 0.0 6.4 0.00 0.00 0.00 65 1011.7
20260506030016 20 218 0.0 8.0 0.00 0.00 0.00 64 1011.7
20260506025520 20 159 0.0 9.7 0.00 0.00 0.00 64 1011.8
20260506025017 20 162 1.6 9.7 0.00 0.00 0.00 64 1011.7
20260506024532 20 211 1.6 14.5 0.00 0.00 0.00 64 1011.9
20260506024017 20 174 1.6 8.0 0.00 0.00 0.00 63 1011.9
20260506023516 20 221 0.0 8.0 0.00 0.00 0.00 63 1011.9
20260506023016 21 176 0.0 11.3 0.00 0.00 0.00 62 1012.0
20260506022516 21 75 0.0 11.3 0.00 0.00 0.00 62 1011.8
20260506022016 21 245 1.6 9.7 0.00 0.00 0.00 61 1011.7
20260506021516 21 122 0.0 9.7 0.00 0.00 0.00 60 1011.8
20260506021015 21 171 0.0 8.0 0.00 0.00 0.00 59 1011.7
20260506020514 21 219 0.0 8.0 0.00 0.00 0.00 58 1011.7
20260506020015 21 188 0.0 11.3 0.00 0.00 0.00 57 1011.7
20260506015516 21 226 1.6 11.3 0.00 0.00 0.00 56 1011.7
20260506015016 21 145 0.0 6.4 0.00 0.00 0.00 55 1011.7
20260506014515 22 167 0.0 6.4 0.00 0.00 0.00 54 1011.7
20260506014015 22 194 0.0 6.4 0.00 0.00 0.00 53 1011.5
20260506013514 22 210 0.0 3.2 0.00 0.00 0.00 52 1011.3
20260506013014 22 186 0.0 4.8 0.00 0.00 0.00 51 1011.4
20260506012514 22 177 0.0 6.4 0.00 0.00 0.00 51 1011.3
20260506012013 22 229 0.0 8.0 0.00 0.00 0.00 50 1011.3
20260506011530 22 177 0.0 8.0 0.00 0.00 0.00 49 1011.3
20260506011014 22 158 0.0 11.3 0.00 0.00 0.00 49 1011.2
20260506010514 23 167 1.6 11.3 0.00 0.00 0.00 49 1011.2
20260506010014 23 179 0.0 8.0 0.00 0.00 0.00 49 1011.1
20260506005513 23 229 1.6 9.7 0.00 0.00 0.00 49 1011.1
20260506005013 23 139 1.6 12.9 0.00 0.00 0.00 48 1011.1
20260506004512 23 180 3.2 12.9 0.00 0.00 0.00 48 1011.1
20260506004013 23 232 1.6 9.7 0.00 0.00 0.00 48 1010.9
20260506003512 23 168 3.2 9.7 0.00 0.00 0.00 48 1010.9
20260506003016 23 210 1.6 12.9 0.00 0.00 0.00 48 1010.8
20260506002518 23 186 1.6 12.9 0.00 0.00 0.00 49 1010.8
20260506002013 23 196 1.6 8.0 0.00 0.00 0.00 49 1010.7
20260506001512 23 195 0.0 12.9 0.00 0.00 0.00 49 1010.7